RH
98 97 94 91 91 86 88 90 92 94 95 97 99 98 99 98 94 90 78 73 67 52 64 69 75 84 91 95 83 93 93 77 72 70 62 40 37 30 29 29 27 24 24 26 26
96 94 92 92 90 86 91 93 96 95 93 92 94 96 97 100 100 97 74 65 50 62 66 77 76 79 84 88 82 92 87 68 52 53 58 49 45 40 33 33 32 28 27 27 29
93 95 92 91 93 92 98 98 98 100 98 92 91 97 98 100 100 90 52 58 66 73 75 73 77 69 80 84 84 88 84 59 56 52 50 57 53 44 43 45 37 33 30 33 47
97 98 96 94 93 94 94 84 84 83 81 80 90 99 99 98 94 64 72 86 92 82 94 72 56 84 79 69 76 91 69 70 67 61 58 58 55 54 51 48 40 36 34 40 57
64 62 66 64 61 56 49 51 58 60 62 76 86 99 100 100 92 86 85 88 92 93 86 80 74 75 85 76 73 81 74 64 60 62 66 59 66 73 62 52 48 44 45 43 47
51 46 44 42 41 42 52 65 78 72 67 70 79 97 100 99 95 94 90 84 71 76 92 83 65 70 91 87 87 80 73 66 63 64 63 67 62 70 62 63 62 57 54 50 45
44 41 38 37 38 40 59 90 85 75 63 63 68 99 99 91 97 96 92 91 84 68 62 76 75 94 87 76 63 82 94 80 66 60 62 58 65 67 58 60 62 55 54 51 42
32 28 24 28 35 45 82 89 83 76 71 73 76 91 96 93 94 79 62 55 53 57 64 67 82 80 84 82 72 89 96 99 60 52 55 63 86 49 43 46 58 59 55 51 46
22 19 23 29 41 85 91 85 82 90 83 83 97 99 92 85 69 65 62 62 63 65 75 80 74 72 63 96 97 84 94 88 66 43 77 87 81 56 56 52 57 62 60 56 48
19 19 22 30 63 97 88 80 97 95 90 82 82 84 73 76 75 71 65 77 57 49 60 91 99 99 96 99 90 85 93 81 97 67 59 66 82 79 67 71 79 65 53 54 52
24 23 27 36 87 82 82 91 87 91 77 85 90 94 84 84 74 62 71 84 77 50 83 79 87 85 84 94 97 99 92 93 66 53 64 78 74 65 52 70 67 72 59 52 48
31 33 40 48 75 83 85 98 99 98 94 84 56 62 60 53 68 45 41 72 56 73 61 72 86 62 53 49 84 98 95 89 78 72 57 56 62 49 49 58 58 52 62 58 49
39 45 55 63 81 80 86 94 100 94 97 77 44 44 50 58 60 47 40 44 45 52 55 58 42 34 37 45 65 71 76 67 62 44 45 60 63 51 45 48 44 44 46 47 51
46 46 63 62 75 80 90 100 95 86 90 56 41 44 51 49 53 47 43 43 51 58 50 46 34 34 40 42 39 55 37 39 38 52 86 65 92 51 42 39 40 45 40 41 40
51 54 67 71 80 83 92 90 88 85 55 46 46 44 48 52 51 34 38 46 58 55 41 47 44 42 43 37 37 48 44 40 39 50 62 63 96 74 52 48 40 33 33 34 33
55 59 65 71 78 78 86 86 81 76 66 59 51 54 60 56 54 45 38 43 47 53 54 55 40 38 40 34 37 37 42 54 66 71 94 64 65 71 42 36 38 33 32 31 29
65 62 61 67 74 78 81 83 82 72 56 69 66 69 75 73 50 35 35 39 44 56 59 46 39 30 36 37 38 47 62 82 81 97 79 60 52 65 39 35 34 30 27 24 27
84 72 72 70 74 76 75 79 66 62 73 75 80 78 82 58 45 49 45 48 38 46 82 76 56 45 41 42 47 49 57 79 79 90 68 49 52 36 40 26 45 40 65 64 41
73 79 86 79 74 71 74 87 75 68 79 83 72 79 67 44 62 55 48 53 47 52 68 90 69 48 42 42 41 43 80 60 84 80 95 79 60 41 44 48 55 61 76 81 80
82 87 92 80 76 71 86 82 76 80 84 78 86 75 96 72 58 68 58 45 48 59 66 72 78 50 52 42 46 47 54 79 93 100 100 69 61 77 71 66 63 66 62 81 80
98 92 90 80 81 75 90 94 76 80 77 85 84 89 92 76 73 69 67 48 47 64 69 83 78 62 52 52 57 67 78 84 87 98 96 98 68 72 68 48 82 70 60 74 86
93 96 98 93 91 96 94 88 79 79 87 88 86 93 88 71 81 79 72 57 45 56 61 70 88 100 73 52 52 57 76 83 90 77 96 88 66 30 38 38 64 63 61 82 88
87 94 98 99 97 94 84 94 86 80 89 89 80 79 79 86 94 84 68 47 49 60 77 78 87 93 67 67 51 68 84 88 87 94 97 97 66 42 36 68 61 64 72 85 87
91 98 98 99 99 93 83 88 94 75 81 83 87 80 92 98 84 91 68 57 58 65 54 64 85 75 82 61 77 77 86 78 81 100 84 73 57 41 56 80 65 60 83 82 87
90 89 93 96 97 91 92 95 98 96 86 87 97 90 89 97 96 94 78 70 58 51 72 88 98 93 82 70 76 78 85 90 90 79 94 59 55 45 84 86 63 86 78 75 84
85 95 100 97 90 100 96 97 97 87 90 96 98 77 90 96 78 91 94 86 81 66 82 96 96 91 92 75 74 79 70 75 80 78 78 67 67 52 78 66 76 88 80 78 80
97 92 92 84 97 98 92 87 85 88 76 72 81 95 97 86 75 70 76 98 92 77 90 96 96 96 92 63 63 77 57 55 74 93 95 90 84 72 78 71 64 89 78 80 87
Wind_Speed
27 28 27 27 28 28 28 28 28 28 28 29 29 28 28 30 32 34 35 32 22 5 6 8 10 7 9 10 13 10 11 22 23 19 13 5 7 15 24 17 20 9 5 6 13
28 27 28 28 29 30 30 29 30 30 29 28 29 27 25 32 32 29 30 8 3 7 9 8 11 9 6 6 8 8 15 30 16 14 8 12 22 15 5 6 6 9 15 13 11
27 27 28 29 30 31 31 31 30 31 33 32 29 24 22 23 22 24 3 0 10 10 10 10 12 13 11 13 11 7 23 21 16 27 25 8 16 24 5 14 15 7 13 12 9
28 27 28 30 30 33 35 36 35 36 38 34 26 21 26 18 7 3 1 6 8 9 10 12 11 6 6 12 16 16 23 20 22 31 28 14 19 21 22 29 22 12 11 13 13
29 30 30 31 31 32 32 31 30 28 27 24 23 24 13 9 19 25 24 25 20 23 18 18 15 18 15 10 14 18 21 30 31 24 30 34 20 13 24 27 28 27 22 18 17
30 30 30 30 30 30 29 27 25 25 23 21 19 17 15 7 18 18 27 23 15 9 24 16 6 8 10 7 14 14 21 22 22 25 31 20 22 19 34 29 26 27 27 23 23
31 31 32 32 31 29 26 24 26 24 21 21 17 16 15 17 16 26 16 20 21 21 14 17 16 14 4 8 9 14 14 17 16 15 11 12 21 29 27 25 25 29 28 26 21
33 34 34 33 30 27 22 22 24 21 17 16 11 6 8 9 14 7 6 7 6 5 6 10 9 14 15 11 11 8 7 7 3 11 13 12 23 22 26 26 29 31 34 34 35
34 35 35 32 26 22 21 20 21 12 12 11 5 5 3 5 4 7 9 7 8 7 9 8 1 8 8 4 5 4 10 13 12 7 5 10 19 10 21 24 19 22 26 29 33
34 35 34 31 22 19 19 17 10 8 10 6 7 2 4 5 9 9 10 10 4 8 7 6 3 2 1 4 6 4 6 7 8 9 17 17 17 8 23 19 18 19 19 23 28
34 33 32 28 18 17 14 8 6 2 12 2 9 5 12 13 17 7 10 12 8 3 2 2 1 5 9 9 11 8 12 15 18 16 13 14 17 13 13 13 18 21 14 17 23
32 31 30 25 14 13 12 6 6 4 5 4 6 4 5 7 4 6 6 3 1 1 3 2 6 11 9 14 11 11 14 15 13 10 13 11 18 14 12 11 17 20 21 22 15
29 28 27 21 12 11 12 12 8 6 1 4 5 4 4 4 4 4 2 1 1 1 4 5 5 5 5 4 10 12 11 12 10 10 8 7 9 6 7 15 21 24 28 26 28
27 27 22 17 5 14 9 10 7 2 4 5 5 2 3 5 4 12 3 1 1 3 4 5 4 3 6 5 7 11 6 7 9 6 3 6 5 6 7 9 9 18 22 23 31
23 27 18 16 9 9 9 8 5 2 4 2 3 3 8 2 8 2 1 2 4 6 1 7 6 6 5 5 1 6 6 6 8 5 4 3 3 7 6 8 10 11 15 19 25
20 23 19 13 10 9 8 7 5 5 3 3 1 5 5 3 2 6 4 7 6 3 4 8 5 3 4 2 1 4 5 5 3 1 2 5 3 6 4 4 7 6 13 17 28
18 21 22 13 9 7 10 8 4 5 1 3 3 4 3 4 4 4 4 4 2 4 3 6 4 3 2 3 2 7 5 3 5 3 5 3 5 7 12 11 10 13 16 25 21
16 19 18 12 9 10 12 4 4 3 3 1 3 4 3 3 2 4 4 3 1 2 2 2 6 4 5 2 2 2 3 4 3 2 5 5 5 5 9 14 26 19 22 30 24
14 18 14 10 10 13 4 3 5 4 1 2 3 2 3 2 2 4 2 3 3 4 5 3 4 4 2 3 2 4 1 2 1 3 2 4 6 7 14 18 17 23 29 31 33
15 20 10 8 10 11 4 3 2 2 3 1 3 3 3 3 3 3 2 3 2 3 3 4 3 1 4 1 1 3 1 2 3 3 6 4 3 2 14 20 20 21 24 32 34
13 10 4 10 12 3 3 5 4 3 4 3 3 3 6 3 4 3 4 5 4 3 4 4 3 4 3 2 3 2 1 3 3 2 3 5 2 2 7 13 14 18 27 28 31
6 3 6 10 3 1 2 3 4 2 4 3 2 4 5 3 3 4 6 5 1 5 3 2 4 2 7 4 1 2 5 4 4 6 3 3 7 14 10 15 12 16 23 25 28
6 6 5 3 2 1 3 4 4 3 4 4 4 7 3 4 3 5 4 6 8 6 6 5 0 3 6 6 4 1 3 3 2 1 6 2 6 3 18 17 22 19 21 25 29
4 3 2 3 1 1 5 6 4 5 4 5 4 4 3 5 7 5 3 4 3 5 11 9 5 7 6 6 4 3 3 4 5 2 4 14 18 19 11 15 16 22 22 24 26
5 4 3 2 4 6 3 3 4 3 6 9 3 11 7 5 2 7 9 12 11 9 3 2 6 6 5 6 5 7 8 5 7 12 8 16 17 14 8 13 16 14 20 23 24
5 4 4 4 4 5 8 5 7 6 5 5 11 11 11 9 10 6 5 5 6 2 8 2 2 4 4 9 10 14 13 13 12 15 14 15 20 7 11 15 10 14 18 19 26
11 14 5 6 3 4 5 7 7 4 11 19 11 9 9 16 23 23 24 10 6 4 4 5 4 3 5 3 2 9 11 10 4 4 4 6 5 4 10 9 12 20 21 20 24
Wind_Direction
324 325 322 318 315 314 312 308 307 307 305 303 304 305 302 301 285 287 293 299 292 287 299 285 272 287 274 255 232 240 242 242 240 238 238 275 200 246 241 243 248 213 233 290 295
321 321 319 315 314 315 310 306 308 301 303 304 302 304 301 289 267 269 309 274 195 284 296 297 294 301 272 248 220 213 247 246 255 250 255 229 249 259 247 228 245 237 274 286 287
322 318 316 312 310 309 303 301 302 299 296 301 301 296 295 304 269 287 239 71 301 306 283 283 277 277 244 246 219 225 244 261 262 250 261 258 252 260 217 256 247 260 289 285 250
317 314 310 306 305 302 304 303 298 293 294 296 296 297 299 298 278 136 213 293 237 225 272 280 272 245 243 245 232 258 260 264 265 264 277 252 257 249 244 247 253 250 262 287 247
324 323 317 315 312 311 313 313 312 311 309 296 288 303 269 218 242 262 270 280 271 274 283 291 274 259 263 290 270 236 257 263 264 271 252 259 258 258 253 257 257 261 256 251 256
332 331 328 325 323 321 320 322 322 320 317 309 292 286 243 262 279 265 274 287 268 272 296 276 258 304 308 283 281 298 300 289 271 263 261 263 261 264 257 261 267 264 262 263 263
335 334 331 326 323 322 324 323 321 321 320 312 299 249 243 256 274 289 286 291 293 303 306 277 261 266 309 311 301 314 304 293 265 258 263 270 264 247 254 259 267 256 256 252 255
338 336 331 326 323 323 322 322 321 326 333 344 6 253 236 272 300 319 309 356 29 6 354 330 289 250 248 270 295 304 286 292 300 243 246 241 260 265 272 252 247 245 248 248 252
340 339 337 331 321 322 321 320 328 337 338 356 345 214 285 326 2 333 326 306 310 317 318 358 292 244 244 269 287 225 283 291 303 286 328 315 275 326 297 262 270 249 246 246 245
345 343 342 338 331 321 320 321 340 357 9 22 53 2 353 332 314 297 295 304 322 326 24 40 334 307 235 219 254 272 292 289 292 333 323 307 291 286 312 327 313 299 274 250 239
347 346 346 345 336 333 348 1 9 8 360 4 320 293 301 305 314 342 287 284 291 263 85 296 276 255 260 236 261 269 266 277 287 292 300 274 284 280 260 275 286 286 284 271 247
349 351 357 353 355 15 22 56 27 319 316 353 4 4 349 347 318 17 10 111 94 287 126 304 248 254 256 261 249 277 284 274 275 298 297 288 286 286 263 225 232 259 272 272 269
351 354 358 1 33 13 28 37 34 17 282 328 351 357 354 344 314 323 3 125 177 308 234 208 250 339 316 264 252 264 275 285 274 311 263 281 288 276 281 246 245 244 248 259 261
354 355 357 1 6 4 18 12 16 39 64 313 1 356 354 316 274 318 291 255 314 272 322 243 272 254 294 264 228 278 287 333 330 346 283 45 283 301 272 275 245 247 249 250 249
356 360 358 2 5 4 359 14 18 42 19 250 306 323 328 282 303 353 333 215 238 254 33 259 303 313 287 262 38 262 334 298 290 274 343 275 270 271 275 276 265 259 251 260 270
355 0 3 357 351 5 11 347 334 42 270 338 320 354 4 310 277 295 266 236 269 251 225 256 274 260 244 290 220 279 323 342 342 67 16 263 260 287 304 312 317 306 299 295 294
356 351 357 356 5 9 346 330 30 116 25 326 325 7 349 292 324 343 297 305 225 345 334 329 307 297 299 335 358 41 55 341 359 16 222 254 316 239 289 302 304 311 324 308 293
335 342 339 339 351 344 341 44 87 229 259 355 336 331 285 343 275 311 296 290 258 128 53 76 333 4 330 30 328 346 132 146 258 238 262 307 244 260 274 337 7 2 357 5 349
332 332 319 316 324 346 352 46 205 217 246 356 317 357 305 278 232 327 245 236 241 167 174 107 272 318 324 354 49 300 293 223 221 245 248 235 299 289 25 10 4 1 357 354 352
325 329 306 313 312 343 70 245 239 196 128 125 181 175 246 274 314 36 285 219 247 177 136 202 327 297 303 324 34 107 270 8 7 301 311 274 248 59 24 2 354 354 348 344 346
330 320 314 331 327 14 152 229 278 231 185 173 216 262 229 251 189 240 252 281 215 152 109 133 118 289 16 233 195 8 358 37 114 159 298 318 302 135 12 7 350 339 332 337 337
316 323 311 328 17 65 242 235 310 238 200 248 233 239 227 206 259 241 240 234 218 164 198 177 149 227 225 316 304 284 193 126 119 286 225 225 273 273 354 356 355 319 326 336 334
300 278 312 254 272 269 287 290 273 213 201 191 239 217 191 229 247 216 253 266 267 184 181 192 288 4 356 357 356 176 194 161 153 145 223 216 264 257 346 342 332 325 336 337 332
289 305 308 211 275 255 283 279 260 258 236 199 246 226 197 228 222 273 255 273 319 219 237 164 177 173 201 201 147 283 250 229 158 181 251 241 281 289 335 317 318 327 340 337 328
221 233 225 235 220 223 207 198 242 271 221 205 244 225 202 240 236 228 248 258 275 257 28 172 218 192 234 225 194 249 255 204 197 238 227 277 276 290 321 299 316 332 331 334 331
234 210 198 248 227 189 209 216 211 233 214 216 231 246 220 239 218 259 222 199 230 349 177 196 250 178 246 225 242 267 264 255 242 253 248 263 272 294 280 294 325 325 314 321 338
228 235 236 246 187 178 215 211 219 164 248 247 238 250 239 242 249 255 260 237 235 180 199 181 194 168 263 146 341 284 253 218 226 191 208 235 242 296 297 304 302 278 305 312 336